Champaign, IL

3:00 AM CST on December 11, 2019 (GMT -0600)
Univ Of Illinois-Willard

Weather History for KCMI - May, 2019

Change the Weather History Date:

Monday, May 6, 2019

  Actual Average Record
Temperature  
Mean Temperature 64 °F 60 °F  
Max Temperature 79 °F 72 °F 93 °F (2004)
Min Temperature 48 °F 48 °F 37 °F (2006)
Degree Days  
Heating Degree Days 1 7  
Month to date heating degree days 37 44  
Since 1 July heating degree days 5800 5708  
Cooling Degree Days 0 1  
Month to date cooling degree days 0 6  
Year to date cooling degree days 3 17  
Growing Degree Days 13 (Base 50)    
Moisture  
Dew Point 51 °F    
Average Humidity 63    
Maximum Humidity 86    
Minimum Humidity 39    
Precipitation  
Precipitation 0.00 in 0.16 in 0.81 in (2002)
Month to date precipitation 0.37 0.97  
Year to date precipitation 12.51 11.58  
Sea Level Pressure  
Sea Level Pressure 30.00 in    
Wind  
Wind Speed 11 mph (SSW)    
Max Wind Speed 22 mph    
Max Gust Speed 32 mph    
Visibility 10 miles    
Events      
T = Trace of Precipitation, MM = Missing Value Source: NWS Daily Summary

Daily Weather History Graph

Daily Weather History Graph

Search for Another Location

Airport or City:

Astronomy

May. 06, 2019 Rise Set
Actual Time 5:47 AM CDT 7:52 PM CDT
Civil Twilight 5:17 AM CDT 8:22 PM CDT
Nautical Twilight 4:41 AM CDT 8:59 PM CDT
Astronomical Twilight 4:01 AM CDT 9:39 PM CDT
Moon 7:09 AM CDT (5/6) 9:50 PM CDT (5/6)
Length of Visible Light 15h 05m
Length of Day
14h 05m
Waxing Crescent, 3% of the Moon is Illuminated
May 6
Waxing Crescent
May 11
First Quarter
May 18
Full
May 26
Last Quarter
Jun 3
New

Hourly Weather History & Observations

Time (CDT) Temp. Dew Point Humidity Pressure Visibility Wind Dir Wind Speed Gust Speed Precip Events Conditions
12:53 AM 54.0 °F 46.9 °F 77% 29.95 in 10.0 mi SW 5.8 mph - N/A   Clear
1:53 AM 52.0 °F 46.9 °F 83% 29.94 in 10.0 mi South 5.8 mph - N/A   Clear
2:53 AM 50.0 °F 46.0 °F 86% 29.95 in 10.0 mi South 4.6 mph - N/A   Clear
3:53 AM 50.0 °F 46.0 °F 86% 29.97 in 10.0 mi SSW 6.9 mph - N/A   Clear
4:53 AM 50.0 °F 46.0 °F 86% 29.98 in 10.0 mi South 8.1 mph - N/A   Clear
5:53 AM 48.9 °F 45.0 °F 86% 29.99 in 10.0 mi South 6.9 mph - N/A   Clear
6:53 AM 55.0 °F 48.9 °F 80% 29.99 in 10.0 mi North - - N/A   Clear
7:53 AM 61.0 °F 51.1 °F 70% 30.01 in 10.0 mi South 10.4 mph - N/A   Clear
8:53 AM 66.0 °F 53.1 °F 63% 30.01 in 10.0 mi South 12.7 mph - N/A   Clear
9:53 AM 70.0 °F 53.1 °F 55% 30.02 in 10.0 mi SSW 17.3 mph - N/A   Clear
10:53 AM 72.0 °F 52.0 °F 49% 30.03 in 10.0 mi South 18.4 mph - N/A   Clear
11:53 AM 75.0 °F 53.1 °F 46% 30.03 in 10.0 mi SSW 16.1 mph 25.3 mph N/A   Partly Cloudy
12:53 PM 75.9 °F 52.0 °F 43% 30.02 in 10.0 mi SSW 18.4 mph 25.3 mph N/A   Clear
1:53 PM 75.9 °F 53.1 °F 45% 30.01 in 10.0 mi SW 15.0 mph - N/A   Clear
2:53 PM 78.1 °F 51.1 °F 39% 30.00 in 10.0 mi SW 20.7 mph 28.8 mph N/A   Clear
3:53 PM 77.0 °F 50.0 °F 39% 29.99 in 10.0 mi SW 18.4 mph 27.6 mph N/A   Clear
4:53 PM 75.9 °F 52.0 °F 43% 29.99 in 10.0 mi SSW 13.8 mph 26.5 mph N/A   Clear
5:53 PM 75.0 °F 53.1 °F 46% 30.00 in 10.0 mi SSW 13.8 mph 20.7 mph N/A   Clear
6:53 PM 73.0 °F 54.0 °F 51% 30.00 in 10.0 mi SSW 11.5 mph - N/A   Clear
7:53 PM 66.0 °F 54.0 °F 65% 30.02 in 10.0 mi SSW 6.9 mph - N/A   Clear
8:53 PM 63.0 °F 54.0 °F 72% 30.04 in 10.0 mi South 8.1 mph - N/A   Clear
9:53 PM 59.0 °F 53.1 °F 81% 30.05 in 10.0 mi SSW 8.1 mph - N/A   Clear
10:53 PM 57.9 °F 53.1 °F 84% 30.05 in 10.0 mi South 6.9 mph - N/A   Clear
11:53 PM 57.0 °F 52.0 °F 83% 30.06 in 10.0 mi SE 4.6 mph - N/A   Scattered Clouds